Location: Grieser Field
(39.7333°N, 81.7975°W)
Time: 08:21:25
(UTC-04:00)

Meteor 2-1 Rocket - Visible Passes

Search period start: 05 May 2016 00:00
Search period end: 15 May 2016 00:00
Orbit: 830 x 907 km, 81.3° (Epoch: 04 May)

Date Brightness Start Highest point End Pass type
(mag) Time Alt. Az. Time Alt. Az. Time Alt. Az.
05 May 6.9 02:09:42 10° NE 02:11:54 12° ENE 02:14:05 10° E visible
05 May 4.3 03:50:07 10° N 03:56:03 88° E 03:58:38 36° S visible
05 May 6.1 05:36:35 10° WNW 05:38:26 12° W 05:40:18 10° W visible
06 May 6.9 02:02:56 10° NE 02:05:16 12° ENE 02:07:36 10° E visible
06 May 4.2 03:43:28 10° N 03:49:24 89° E 03:51:31 42° S visible
06 May 6.2 05:30:06 10° WNW 05:31:46 11° W 05:33:27 10° W visible
07 May 6.8 01:56:09 10° NE 01:58:38 13° ENE 02:01:07 10° E visible
07 May 4.2 03:36:49 10° N 03:42:45 89° WSW 03:44:28 49° S visible
07 May 6.2 05:23:38 10° WNW 05:25:06 11° W 05:26:33 10° W visible
08 May 6.8 01:49:23 10° NE 01:52:00 13° ENE 01:54:36 10° E visible
08 May 4.2 03:30:09 10° N 03:36:05 87° W 03:37:28 56° S visible
08 May 6.2 05:17:12 10° WNW 05:18:25 11° W 05:19:38 10° W visible
09 May 6.8 01:42:38 10° NE 01:45:22 13° ENE 01:48:05 10° E visible
09 May 4.2 03:23:30 10° N 03:29:26 86° W 03:30:31 62° S visible
09 May 6.2 05:10:53 10° WNW 05:11:45 10° W 05:12:37 10° W visible
10 May 6.7 01:35:53 10° NE 01:38:44 14° ENE 01:41:14 11° E visible
10 May 4.2 03:16:51 10° N 03:22:47 84° W 03:23:36 68° S visible
10 May 6.3 05:04:51 10° WNW 05:05:04 10° W 05:05:18 10° W visible
11 May 6.6 01:29:08 10° NE 01:32:06 14° ENE 01:34:21 11° E visible
11 May 4.2 03:10:11 10° N 03:16:08 82° W 03:16:43 72° SSW visible
12 May 6.6 01:22:24 10° NNE 01:25:27 14° ENE 01:27:30 12° E visible
12 May 4.2 03:03:32 10° NNW 03:09:29 81° W 03:09:52 76° SSW visible
13 May 6.6 01:15:39 10° NNE 01:18:49 15° ENE 01:20:40 13° E visible
13 May 4.2 02:56:53 10° NNW 03:02:49 79° W 03:03:03 77° SW visible
14 May 6.5 01:08:56 10° NNE 01:12:11 15° ENE 01:13:53 13° E visible
14 May 4.2 02:50:14 10° NNW 02:56:10 77° W 02:56:15 77° WSW visible
